| time (UTC) | temp F | wind direction | speed MPH | gust MPH | rain 1hr in | rain 24hr in | rain mn in | humidity % | barometer mb |
| 20260506041705 | 43 | 299 | 3.0 | 6.0 | 0.00 | 0.00 | 0.00 | 84 | 1017.7 |
| 20260506041205 | 43 | 306 | 0.0 | 5.0 | 0.00 | 0.00 | 0.00 | 83 | 1017.6 |
| 20260506040705 | 43 | 334 | 0.0 | 7.0 | 0.00 | 0.00 | 0.00 | 83 | 1017.7 |
| 20260506040233 | 43 | 322 | 1.0 | 8.0 | 0.00 | 0.00 | 0.00 | 83 | 1017.7 |
| 20260506035705 | 43 | 289 | 0.0 | 8.0 | 0.00 | 0.00 | 0.00 | 83 | 1017.7 |
| 20260506035206 | 43 | 323 | 3.0 | 8.0 | 0.00 | 0.00 | 0.00 | 83 | 1017.7 |
| 20260506034704 | 43 | 352 | 0.0 | 8.0 | 0.00 | 0.00 | 0.00 | 83 | 1017.7 |
| 20260506034205 | 43 | 334 | 5.0 | 6.0 | 0.00 | 0.00 | 0.00 | 84 | 1017.8 |
| 20260506033205 | 43 | 345 | 1.0 | 7.0 | 0.00 | 0.00 | 0.00 | 84 | 1017.9 |
| 20260506032714 | 43 | 351 | 1.0 | 8.0 | 0.00 | 0.00 | 0.00 | 84 | 1017.9 |
| 20260506032204 | 43 | 313 | 2.0 | 8.0 | 0.00 | 0.00 | 0.00 | 84 | 1017.8 |
| 20260506031704 | 44 | 319 | 0.0 | 8.0 | 0.00 | 0.00 | 0.00 | 84 | 1017.8 |
| 20260506031204 | 44 | 333 | 1.0 | 9.0 | 0.00 | 0.00 | 0.00 | 85 | 1017.9 |
| 20260506030704 | 44 | 320 | 4.0 | 9.0 | 0.00 | 0.00 | 0.00 | 85 | 1017.9 |
| 20260506030220 | 44 | 333 | 2.0 | 9.0 | 0.00 | 0.00 | 0.00 | 85 | 1017.9 |
| 20260506025705 | 44 | 309 | 5.0 | 9.0 | 0.00 | 0.00 | 0.00 | 86 | 1018.0 |
| 20260506025205 | 44 | 343 | 5.0 | 8.0 | 0.00 | 0.00 | 0.00 | 86 | 1017.9 |
| 20260506024205 | 44 | 322 | 1.0 | 6.0 | 0.00 | 0.00 | 0.00 | 87 | 1017.9 |
| 20260506023705 | 44 | 338 | 4.0 | 6.0 | 0.00 | 0.00 | 0.00 | 89 | 1017.9 |
| 20260506023205 | 44 | 344 | 2.0 | 6.0 | 0.00 | 0.00 | 0.00 | 90 | 1017.9 |
| 20260506021704 | 44 | 303 | 3.0 | 8.0 | 0.00 | 0.00 | 0.00 | 92 | 1017.8 |
| 20260506021205 | 44 | 341 | 2.0 | 9.0 | 0.00 | 0.00 | 0.00 | 93 | 1017.9 |
| 20260506020705 | 44 | 300 | 2.0 | 9.0 | 0.00 | 0.00 | 0.00 | 93 | 1017.8 |
| 20260506020204 | 44 | 309 | 2.0 | 9.0 | 0.00 | 0.00 | 0.00 | 94 | 1017.9 |
| 20260506015704 | 44 | 322 | 3.0 | 9.0 | 0.00 | 0.00 | 0.00 | 94 | 1017.9 |
| 20260506014705 | 44 | 306 | 2.0 | 8.0 | 0.00 | 0.00 | 0.00 | 94 | 1017.9 |
| 20260506014204 | 45 | 327 | 1.0 | 7.0 | 0.00 | 0.00 | 0.00 | 94 | 1017.9 |
| 20260506013704 | 45 | 317 | 4.0 | 5.0 | 0.00 | 0.00 | 0.00 | 94 | 1018.0 |
| 20260506013204 | 45 | 333 | 1.0 | 5.0 | 0.00 | 0.00 | 0.00 | 94 | 1017.9 |
| 20260506011705 | 45 | 330 | 4.0 | 4.0 | 0.00 | 0.00 | 0.00 | 93 | 1018.0 |
| 20260506011204 | 45 | 23 | 0.0 | 0.0 | 0.00 | 0.00 | 0.00 | 93 | 1018.0 |
| 20260506010704 | 45 | 23 | 0.0 | 0.0 | 0.00 | 0.00 | 0.00 | 93 | 1018.0 |
| 20260506005205 | 45 | 23 | 0.0 | 6.0 | 0.00 | 0.00 | 0.00 | 92 | 1018.0 |
| 20260506004704 | 44 | 23 | 0.0 | 6.0 | 0.00 | 0.00 | 0.00 | 92 | 1018.1 |
| 20260506004205 | 45 | 23 | 0.0 | 6.0 | 0.00 | 0.00 | 0.00 | 92 | 1018.1 |
| 20260506003705 | 45 | 23 | 0.0 | 5.0 | 0.00 | 0.00 | 0.00 | 92 | 1018.1 |
| 20260506002704 | 44 | 175 | 0.0 | 0.0 | 0.00 | 0.00 | 0.00 | 90 | 1018.1 |
| 20260506002205 | 44 | 175 | 0.0 | 0.0 | 0.00 | 0.00 | 0.00 | 90 | 1018.0 |
| 20260506001705 | 44 | 175 | 0.0 | 0.0 | 0.00 | 0.00 | 0.00 | 90 | 1018.0 |
| 20260506001204 | 44 | 175 | 0.0 | 0.0 | 0.00 | 0.00 | 0.00 | 89 | 1017.9 |
| 20260506000205 | 44 | 175 | 0.0 | 0.0 | 0.00 | 0.00 | 0.00 | 89 | 1017.9 |
| 20260505235704 | 45 | 175 | 0.0 | 0.0 | 0.00 | 0.00 | 0.00 | 89 | 1017.9 |
| 20260505235205 | 45 | 175 | 0.0 | 0.0 | 0.00 | 0.00 | 0.00 | 89 | 1017.9 |
| 20260505234704 | 45 | 175 | 0.0 | 0.0 | 0.00 | 0.00 | 0.00 | 89 | 1017.9 |
| 20260505234205 | 45 | 175 | 0.0 | 0.0 | 0.00 | 0.00 | 0.00 | 89 | 1017.9 |
| 20260505233705 | 46 | 175 | 0.0 | 0.0 | 0.00 | 0.00 | 0.00 | 89 | 1017.9 |
| 20260505233204 | 46 | 175 | 0.0 | 0.0 | 0.00 | 0.00 | 0.00 | 87 | 1017.9 |
| 20260505232704 | 46 | 175 | 0.0 | 0.0 | 0.00 | 0.00 | 0.00 | 87 | 1017.9 |
| 20260505232205 | 46 | 175 | 0.0 | 0.0 | 0.00 | 0.00 | 0.00 | 87 | 1017.9 |
| 20260505231704 | 46 | 175 | 0.0 | 0.0 | 0.00 | 0.00 | 0.00 | 87 | 1017.9 |
| 20260505230705 | 47 | 175 | 0.0 | 0.0 | 0.00 | 0.00 | 0.00 | 86 | 1018.1 |
| 20260505230205 | 47 | 175 | 0.0 | 0.0 | 0.00 | 0.00 | 0.00 | 86 | 1018.0 |
| 20260505225705 | 47 | 175 | 0.0 | 5.0 | 0.00 | 0.00 | 0.00 | 86 | 1018.1 |
| 20260505224205 | 47 | 175 | 0.0 | 5.0 | 0.00 | 0.00 | 0.00 | 86 | 1018.0 |
| 20260505223205 | 48 | 232 | 1.0 | 3.0 | 0.00 | 0.00 | 0.00 | 85 | 1018.0 |
| 20260505222705 | 48 | 227 | 0.0 | 5.0 | 0.00 | 0.00 | 0.00 | 85 | 1018.1 |
| 20260505221704 | 48 | 213 | 0.0 | 5.0 | 0.00 | 0.00 | 0.00 | 84 | 1018.1 |
| 20260505221205 | 48 | 175 | 0.0 | 5.0 | 0.00 | 0.00 | 0.00 | 84 | 1018.1 |
| 20260505220705 | 48 | 226 | 1.0 | 0.0 | 0.00 | 0.00 | 0.00 | 83 | 1018.1 |
| 20260505220205 | 48 | 42 | 0.0 | 0.0 | 0.00 | 0.00 | 0.00 | 83 | 1018.1 |
| 20260505215705 | 48 | 42 | 0.0 | 0.0 | 0.00 | 0.00 | 0.00 | 83 | 1018.0 |
| 20260505215226 | 49 | 42 | 0.0 | 0.0 | 0.00 | 0.00 | 0.00 | 83 | 1018.0 |
| 20260505214704 | 49 | 42 | 0.0 | 0.0 | 0.00 | 0.00 | 0.00 | 83 | 1018.0 |
| 20260505214204 | 49 | 42 | 0.0 | 0.0 | 0.00 | 0.00 | 0.00 | 83 | 1018.0 |
| 20260505213706 | 49 | 42 | 0.0 | 0.0 | 0.00 | 0.00 | 0.00 | 83 | 1018.0 |
| 20260505213204 | 49 | 42 | 0.0 | 0.0 | 0.00 | 0.00 | 0.00 | 83 | 1018.0 |
| 20260505212725 | 49 | 42 | 0.0 | 0.0 | 0.00 | 0.00 | 0.00 | 83 | 1017.9 |
| 20260505212204 | 49 | 42 | 0.0 | 0.0 | 0.00 | 0.00 | 0.00 | 83 | 1017.8 |
| 20260505211704 | 49 | 42 | 0.0 | 0.0 | 0.00 | 0.00 | 0.00 | 83 | 1017.8 |
| 20260505211204 | 49 | 42 | 0.0 | 0.0 | 0.00 | 0.00 | 0.00 | 83 | 1017.9 |
| 20260505210705 | 49 | 42 | 0.0 | 0.0 | 0.00 | 0.00 | 0.00 | 82 | 1017.8 |
| 20260505210230 | 49 | 42 | 0.0 | 0.0 | 0.00 | 0.00 | 0.00 | 82 | 1017.9 |
| 20260505205704 | 49 | 42 | 0.0 | 0.0 | 0.00 | 0.00 | 0.00 | 82 | 1017.8 |
| 20260505204705 | 50 | 42 | 0.0 | 0.0 | 0.00 | 0.00 | 0.00 | 81 | 1017.7 |
| 20260505204205 | 50 | 42 | 0.0 | 0.0 | 0.00 | 0.00 | 0.00 | 81 | 1017.7 |
| 20260505203705 | 50 | 42 | 0.0 | 0.0 | 0.00 | 0.00 | 0.00 | 79 | 1017.7 |
| 20260505203204 | 50 | 42 | 0.0 | 0.0 | 0.00 | 0.00 | 0.00 | 79 | 1017.7 |
| 20260505202704 | 50 | 42 | 0.0 | 0.0 | 0.00 | 0.00 | 0.00 | 79 | 1017.6 |
| 20260505202205 | 50 | 42 | 0.0 | 0.0 | 0.00 | 0.00 | 0.00 | 78 | 1017.6 |
| 20260505201704 | 51 | 42 | 0.0 | 0.0 | 0.00 | 0.00 | 0.00 | 78 | 1017.5 |
| 20260505201204 | 51 | 42 | 0.0 | 0.0 | 0.00 | 0.00 | 0.00 | 77 | 1017.5 |
| 20260505200705 | 51 | 42 | 0.0 | 0.0 | 0.00 | 0.00 | 0.00 | 77 | 1017.5 |
| 20260505195705 | 51 | 42 | 0.0 | 0.0 | 0.00 | 0.00 | 0.00 | 77 | 1017.4 |
| 20260505195205 | 52 | 42 | 0.0 | 0.0 | 0.00 | 0.00 | 0.00 | 76 | 1017.3 |
| 20260505194705 | 52 | 42 | 0.0 | 0.0 | 0.00 | 0.00 | 0.00 | 75 | 1017.3 |
| 20260505193705 | 52 | 42 | 0.0 | 0.0 | 0.00 | 0.00 | 0.00 | 74 | 1017.2 |
| 20260505193204 | 52 | 42 | 0.0 | 0.0 | 0.00 | 0.00 | 0.00 | 73 | 1017.1 |
| 20260505192206 | 53 | 42 | 0.0 | 3.0 | 0.00 | 0.00 | 0.00 | 73 | 1017.2 |
| 20260505191229 | 53 | 42 | 0.0 | 4.0 | 0.00 | 0.00 | 0.00 | 72 | 1017.2 |
| 20260505190705 | 53 | 42 | 0.0 | 7.0 | 0.00 | 0.00 | 0.00 | 70 | 1017.0 |
| 20260505190205 | 53 | 333 | 0.0 | 7.0 | 0.00 | 0.00 | 0.00 | 70 | 1017.0 |
| 20260505185705 | 53 | 333 | 3.0 | 7.0 | 0.00 | 0.00 | 0.00 | 70 | 1017.0 |
| 20260505185205 | 53 | 0 | 1.0 | 7.0 | 0.00 | 0.00 | 0.00 | 70 | 1017.0 |
| 20260505184705 | 53 | 30 | 1.0 | 7.0 | 0.00 | 0.00 | 0.00 | 70 | 1017.0 |
| 20260505184205 | 54 | 345 | 0.0 | 7.0 | 0.00 | 0.00 | 0.00 | 70 | 1016.9 |
| 20260505183704 | 54 | 340 | 4.0 | 6.0 | 0.00 | 0.00 | 0.00 | 70 | 1016.9 |
| 20260505183205 | 54 | 18 | 1.0 | 6.0 | 0.00 | 0.00 | 0.00 | 70 | 1016.9 |
| 20260505182704 | 54 | 28 | 2.0 | 7.0 | 0.00 | 0.00 | 0.00 | 69 | 1016.8 |
| 20260505182204 | 54 | 36 | 0.0 | 7.0 | 0.00 | 0.00 | 0.00 | 69 | 1016.9 |
| 20260505181204 | 54 | 352 | 3.0 | 7.0 | 0.00 | 0.00 | 0.00 | 69 | 1016.8 |
| 20260505180705 | 54 | 12 | 2.0 | 6.0 | 0.00 | 0.00 | 0.00 | 69 | 1016.8 |
| 20260505180204 | 54 | 354 | 4.0 | 7.0 | 0.00 | 0.00 | 0.00 | 70 | 1016.8 |
| 20260505175719 | 54 | 67 | 2.0 | 7.0 | 0.00 | 0.00 | 0.00 | 70 | 1016.9 |
| 20260505175205 | 54 | 57 | 0.0 | 7.0 | 0.00 | 0.00 | 0.00 | 70 | 1016.9 |
| 20260505174705 | 54 | 40 | 3.0 | 7.0 | 0.00 | 0.00 | 0.00 | 70 | 1016.9 |
| 20260505174204 | 54 | 14 | 2.0 | 8.0 | 0.00 | 0.00 | 0.00 | 70 | 1016.9 |
| 20260505173204 | 54 | 26 | 4.0 | 10.0 | 0.00 | 0.00 | 0.00 | 69 | 1016.9 |
| 20260505172704 | 54 | 358 | 2.0 | 10.0 | 0.00 | 0.00 | 0.00 | 69 | 1016.9 |
| 20260505172205 | 55 | 5 | 5.0 | 10.0 | 0.00 | 0.00 | 0.00 | 68 | 1016.9 |
| 20260505171204 | 55 | 337 | 7.0 | 8.0 | 0.00 | 0.00 | 0.00 | 69 | 1016.8 |
| 20260505170704 | 55 | 316 | 4.0 | 6.0 | 0.00 | 0.00 | 0.00 | 70 | 1016.9 |
| 20260505170204 | 55 | 21 | 0.0 | 6.0 | 0.00 | 0.00 | 0.00 | 69 | 1016.9 |
| 20260505165205 | 55 | 299 | 0.0 | 6.0 | 0.00 | 0.00 | 0.00 | 68 | 1016.9 |
| 20260505164705 | 55 | 277 | 0.0 | 6.0 | 0.00 | 0.00 | 0.00 | 69 | 1017.0 |
| 20260505163704 | 55 | 278 | 1.0 | 6.0 | 0.00 | 0.00 | 0.00 | 68 | 1016.9 |
| 20260505163204 | 55 | 298 | 3.0 | 5.0 | 0.00 | 0.00 | 0.00 | 67 | 1017.0 |
| 20260505162705 | 55 | 274 | 2.0 | 5.0 | 0.00 | 0.00 | 0.00 | 68 | 1016.9 |
| 20260505162205 | 55 | 305 | 2.0 | 6.0 | 0.00 | 0.00 | 0.00 | 68 | 1016.9 |
| 20260505161728 | 55 | 288 | 0.0 | 6.0 | 0.00 | 0.00 | 0.00 | 68 | 1017.0 |
| 20260505161205 | 55 | 286 | 0.0 | 6.0 | 0.00 | 0.00 | 0.00 | 68 | 1017.1 |
| 20260505160705 | 55 | 275 | 3.0 | 6.0 | 0.00 | 0.00 | 0.00 | 68 | 1017.1 |
| 20260505160204 | 55 | 295 | 0.0 | 4.0 | 0.00 | 0.00 | 0.00 | 68 | 1017.1 |
| 20260505153204 | 54 | 333 | 1.0 | 5.0 | 0.00 | 0.00 | 0.00 | 71 | 1017.2 |
| 20260505152204 | 53 | 8 | 0.0 | 6.0 | 0.00 | 0.00 | 0.00 | 71 | 1017.2 |
| 20260505151205 | 53 | 21 | 0.0 | 7.0 | 0.00 | 0.00 | 0.00 | 70 | 1017.1 |
| 20260505150705 | 53 | 21 | 2.0 | 7.0 | 0.00 | 0.00 | 0.00 | 70 | 1017.1 |
| 20260505150225 | 53 | 39 | 2.0 | 10.0 | 0.00 | 0.00 | 0.00 | 71 | 1017.0 |
| 20260505140204 | 56 | 299 | 0.0 | 8.0 | 0.00 | 0.00 | 0.00 | 68 | 1017.0 |
| 20260505130205 | 55 | 300 | 3.0 | 10.0 | 0.00 | 0.00 | 0.00 | 72 | 1017.6 |
| 20260505124704 | 55 | 7 | 0.0 | 8.0 | 0.00 | 0.00 | 0.00 | 71 | 1017.7 |
| 20260505124205 | 55 | 338 | 3.0 | 10.0 | 0.00 | 0.00 | 0.00 | 73 | 1017.7 |
| 20260505123704 | 54 | 23 | 4.0 | 10.0 | 0.00 | 0.00 | 0.00 | 73 | 1017.8 |
| 20260505123205 | 54 | 350 | 5.0 | 10.0 | 0.00 | 0.00 | 0.00 | 74 | 1017.8 |
| 20260505122704 | 53 | 340 | 5.0 | 9.0 | 0.00 | 0.00 | 0.00 | 75 | 1017.9 |
| 20260505122205 | 53 | 306 | 5.0 | 10.0 | 0.00 | 0.00 | 0.00 | 75 | 1017.9 |
| 20260505121704 | 53 | 310 | 4.0 | 10.0 | 0.00 | 0.00 | 0.00 | 76 | 1017.8 |
| 20260505121204 | 53 | 326 | 4.0 | 10.0 | 0.00 | 0.00 | 0.00 | 76 | 1017.9 |
| 20260505120704 | 52 | 277 | 2.0 | 9.0 | 0.00 | 0.00 | 0.00 | 76 | 1017.9 |
| 20260505115704 | 52 | 330 | 3.0 | 11.0 | 0.00 | 0.00 | 0.00 | 76 | 1018.0 |
| 20260505115205 | 52 | 323 | 5.0 | 13.0 | 0.00 | 0.00 | 0.00 | 76 | 1018.0 |
| 20260505114705 | 52 | 344 | 4.0 | 13.0 | 0.00 | 0.00 | 0.00 | 75 | 1018.0 |
| 20260505114204 | 52 | 270 | 6.0 | 13.0 | 0.00 | 0.00 | 0.00 | 74 | 1018.0 |
| 20260505113704 | 52 | 286 | 5.0 | 12.0 | 0.00 | 0.00 | 0.00 | 74 | 1018.0 |
| 20260505113205 | 53 | 295 | 10.0 | 10.0 | 0.00 | 0.00 | 0.00 | 73 | 1018.1 |
| 20260505112206 | 53 | 258 | 0.0 | 8.0 | 0.00 | 0.00 | 0.00 | 74 | 1018.1 |
| 20260505111704 | 53 | 331 | 0.0 | 8.0 | 0.00 | 0.00 | 0.00 | 74 | 1018.1 |
| 20260505111204 | 53 | 354 | 0.0 | 6.0 | 0.00 | 0.00 | 0.00 | 74 | 1018.2 |
| 20260505110704 | 53 | 281 | 0.0 | 6.0 | 0.00 | 0.00 | 0.00 | 74 | 1018.2 |
| 20260505110204 | 53 | 305 | 0.0 | 6.0 | 0.00 | 0.00 | 0.00 | 74 | 1018.3 |
| 20260505102205 | 52 | 316 | 2.0 | 9.0 | 0.00 | 0.00 | 0.00 | 76 | 1018.5 |
| 20260505101205 | 52 | 7 | 2.0 | 8.0 | 0.00 | 0.00 | 0.00 | 76 | 1018.6 |
| 20260505100705 | 52 | 267 | 5.0 | 7.0 | 0.00 | 0.00 | 0.00 | 77 | 1018.6 |
| 20260505095705 | 52 | 327 | 0.0 | 7.0 | 0.00 | 0.00 | 0.00 | 77 | 1018.7 |
| 20260505095204 | 52 | 337 | 4.0 | 7.0 | 0.00 | 0.00 | 0.00 | 78 | 1018.7 |
| 20260505094704 | 52 | 343 | 4.0 | 8.0 | 0.00 | 0.00 | 0.00 | 77 | 1018.7 |
| 20260505094204 | 52 | 327 | 4.0 | 8.0 | 0.00 | 0.00 | 0.00 | 77 | 1018.7 |
| 20260505093704 | 52 | 336 | 3.0 | 9.0 | 0.00 | 0.00 | 0.00 | 77 | 1018.7 |
| 20260505093204 | 52 | 317 | 3.0 | 9.0 | 0.00 | 0.00 | 0.00 | 77 | 1018.7 |
| 20260505092204 | 52 | 270 | 2.0 | 8.0 | 0.00 | 0.00 | 0.00 | 78 | 1018.7 |
| 20260505091704 | 52 | 307 | 4.0 | 9.0 | 0.00 | 0.00 | 0.00 | 78 | 1018.8 |
| 20260505091204 | 52 | 302 | 0.0 | 9.0 | 0.00 | 0.00 | 0.00 | 79 | 1018.9 |
| 20260505090704 | 51 | 19 | 4.0 | 9.0 | 0.00 | 0.00 | 0.00 | 81 | 1018.9 |
| 20260505090204 | 51 | 305 | 1.0 | 9.0 | 0.00 | 0.00 | 0.00 | 81 | 1019.0 |
| 20260505085705 | 51 | 253 | 0.0 | 9.0 | 0.00 | 0.00 | 0.00 | 79 | 1019.0 |
| 20260505085205 | 51 | 309 | 4.0 | 9.0 | 0.00 | 0.00 | 0.00 | 79 | 1019.1 |
| 20260505084204 | 51 | 322 | 4.0 | 11.0 | 0.00 | 0.00 | 0.00 | 82 | 1019.1 |
| 20260505083704 | 51 | 274 | 0.0 | 11.0 | 0.00 | 0.00 | 0.00 | 81 | 1019.2 |
| 20260505082705 | 51 | 343 | 8.0 | 9.0 | 0.00 | 0.00 | 0.00 | 84 | 1019.2 |
| 20260505082205 | 51 | 322 | 5.0 | 9.0 | 0.00 | 0.00 | 0.00 | 84 | 1019.2 |
| 20260505080205 | 50 | 320 | 2.0 | 9.0 | 0.00 | 0.00 | 0.00 | 86 | 1019.4 |
| 20260505075705 | 49 | 306 | 0.0 | 10.0 | 0.00 | 0.00 | 0.00 | 86 | 1019.4 |
| 20260505075204 | 49 | 306 | 5.0 | 10.0 | 0.00 | 0.00 | 0.00 | 86 | 1019.4 |
| 20260505074704 | 49 | 317 | 3.0 | 10.0 | 0.00 | 0.00 | 0.00 | 86 | 1019.4 |
| 20260505074205 | 49 | 326 | 2.0 | 9.0 | 0.00 | 0.00 | 0.00 | 87 | 1019.4 |
| 20260505073704 | 49 | 343 | 2.0 | 8.0 | 0.00 | 0.00 | 0.00 | 87 | 1019.5 |
| 20260505072705 | 48 | 298 | 2.0 | 6.0 | 0.00 | 0.00 | 0.00 | 89 | 1019.5 |
| 20260505072205 | 48 | 331 | 0.0 | 6.0 | 0.00 | 0.00 | 0.00 | 89 | 1019.6 |
| 20260505071704 | 48 | 279 | 0.0 | 6.0 | 0.00 | 0.00 | 0.00 | 89 | 1019.6 |
| 20260505071205 | 48 | 341 | 1.0 | 6.0 | 0.00 | 0.00 | 0.00 | 89 | 1019.6 |
| 20260505070705 | 47 | 319 | 1.0 | 6.0 | 0.00 | 0.00 | 0.00 | 90 | 1019.7 |
| 20260505065704 | 47 | 327 | 3.0 | 7.0 | 0.00 | 0.00 | 0.00 | 90 | 1019.7 |
| 20260505065205 | 47 | 331 | 0.0 | 7.0 | 0.00 | 0.00 | 0.00 | 90 | 1019.7 |
| 20260505064704 | 47 | 298 | 3.0 | 7.0 | 0.00 | 0.00 | 0.00 | 90 | 1019.7 |
| 20260505064205 | 47 | 288 | 0.0 | 7.0 | 0.00 | 0.00 | 0.00 | 90 | 1019.7 |
| 20260505063704 | 47 | 307 | 2.0 | 7.0 | 0.00 | 0.00 | 0.00 | 90 | 1019.8 |
| 20260505062704 | 47 | 336 | 2.0 | 5.0 | 0.00 | 0.00 | 0.00 | 90 | 1019.8 |
| 20260505062205 | 46 | 320 | 2.0 | 3.0 | 0.00 | 0.00 | 0.00 | 90 | 1019.8 |
| 20260505061705 | 46 | 305 | 0.0 | 3.0 | 0.00 | 0.00 | 0.00 | 90 | 1019.8 |
| 20260505061205 | 46 | 286 | 0.0 | 3.0 | 0.00 | 0.00 | 0.00 | 90 | 1019.8 |
| 20260505060704 | 46 | 286 | 0.0 | 4.0 | 0.00 | 0.00 | 0.00 | 90 | 1019.7 |
| 20260505060204 | 46 | 312 | 0.0 | 4.0 | 0.00 | 0.00 | 0.00 | 90 | 1019.7 |
| 20260505055704 | 46 | 315 | 0.0 | 5.0 | 0.00 | 0.00 | 0.00 | 90 | 1019.7 |
| 20260505055204 | 46 | 334 | 0.0 | 5.0 | 0.00 | 0.00 | 0.00 | 90 | 1019.7 |
| 20260505054704 | 46 | 313 | 0.0 | 6.0 | 0.00 | 0.00 | 0.00 | 90 | 1019.7 |
| 20260505054204 | 45 | 286 | 0.0 | 6.0 | 0.00 | 0.00 | 0.00 | 90 | 1019.7 |
| 20260505053704 | 45 | 300 | 0.0 | 6.0 | 0.00 | 0.00 | 0.00 | 90 | 1019.7 |
| 20260505053204 | 45 | 315 | 2.0 | 6.0 | 0.00 | 0.00 | 0.00 | 90 | 1019.7 |
| 20260505052705 | 45 | 324 | 2.0 | 5.0 | 0.00 | 0.00 | 0.00 | 90 | 1019.7 |
| 20260505052205 | 45 | 306 | 1.0 | 4.0 | 0.00 | 0.00 | 0.00 | 90 | 1019.6 |
| 20260505051705 | 45 | 331 | 0.0 | 4.0 | 0.00 | 0.00 | 0.00 | 90 | 1019.6 |
| 20260505051205 | 45 | 320 | 0.0 | 3.0 | 0.00 | 0.00 | 0.00 | 90 | 1019.5 |
| 20260505050704 | 45 | 286 | 1.0 | 4.0 | 0.00 | 0.00 | 0.00 | 90 | 1019.5 |